Roatan, Honduras

1:31 AM CST on June 28, 2017 (GMT -0600)
Roatan International

Weather History for MHRO - November, 2012

Change the Weather History Date:

Friday, November 30, 2012

  Actual Average Record
Temperature  
Mean Temperature 73 °F -  
Max Temperature 79 °F 81 °F 89 °F (1997)
Min Temperature 67 °F 72 °F 64 °F (2015)
Cooling Degree Days 8    
Growing Degree Days 23 (Base 50)    
Moisture  
Dew Point 71 °F    
Average Humidity 86    
Maximum Humidity 94    
Minimum Humidity 81    
Precipitation  
Precipitation 0.59 in - - ()
Sea Level Pressure  
Sea Level Pressure 30.02 in    
Wind  
Wind Speed 2 mph ()    
Max Wind Speed 7 mph    
Max Gust Speed -    
Visibility 5.1 miles    
Events Rain    
Averages and records for this station are not official NWS values.
T = Trace of Precipitation, MM = Missing Value Source: Averaged Metar Reports

Daily Weather History Graph

Daily Weather History Graph

Search for Another Location

Airport or City:

Trip Planner

Search our weather history database for the weather conditions in past years. The results will help you decide how hot, cold, wet, or windy it might be!

Date:

Astronomy

Nov. 30, 2012 Rise Set
Actual Time 5:58 AM CST 5:11 PM CST
Civil Twilight 5:34 AM CST 5:35 PM CST
Nautical Twilight 5:08 AM CST 6:01 PM CST
Astronomical Twilight 4:41 AM CST 6:28 PM CST
Moon 7:04 PM CST (11/30) 7:30 AM CST (11/30)
Length of Visible Light 12h 00m
Length of Day
11h 13m
Waning Gibbous, 96% of the Moon is Illuminated
Nov 30
Waning Gibbous
Dec 6
Last Quarter
Dec 13
New
Dec 19
First Quarter
Dec 28
Full

Hourly Weather History & Observations

Time (CST) Temp. Dew Point Humidity Pressure Visibility Wind Dir Wind Speed Gust Speed Precip Events Conditions
6:00 AM 73 °F 70 °F 88% 30.03 in 6 mi West 2.3 mph - -   Partly Cloudy
6:00 AM 73.4 °F 69.8 °F 88% 30.01 in 6.2 mi West 2.3 mph - N/A   Scattered Clouds
7:00 AM 73.4 °F 71.6 °F 94% 30.04 in 6.2 mi Calm Calm - N/A   Scattered Clouds
8:00 AM 77.0 °F 71.6 °F 83% 30.04 in 3.7 mi West 4.6 mph - N/A   Scattered Clouds
9:00 AM 76 °F 72 °F 82% 30.07 in 2 mi West 2.3 mph - - Rain Light Drizzle
9:00 AM 77.0 °F 71.6 °F 83% 30.06 in 1.9 mi West 2.3 mph - N/A   Light Drizzle
10:00 AM 71.6 °F 68.0 °F 88% 30.06 in 1.9 mi NE 5.8 mph - N/A Rain Light Rain
11:00 AM 75.2 °F 69.8 °F 83% 30.06 in 3.7 mi WSW 2.3 mph - N/A   Overcast
12:00 PM 75 °F 71 °F 84% 30.05 in 4 mi WSW 3.5 mph - - Rain Light Drizzle
12:00 PM 75.2 °F 71.6 °F 89% 30.04 in 3.7 mi WSW 3.5 mph - N/A   Light Drizzle
1:00 PM 77.0 °F 71.6 °F 83% 30.01 in 6.2 mi WSW 3.5 mph - N/A   Mostly Cloudy
2:00 PM 77.0 °F 71.6 °F 83% 30.01 in 6.2 mi SW 6.9 mph - N/A   Light Drizzle
3:00 PM 77 °F 72 °F 81% 29.99 in 6 mi SW 2.3 mph - - Rain Light Drizzle
3:00 PM 77.0 °F 71.6 °F 83% 29.98 in 6.2 mi SW 2.3 mph - N/A   Overcast
4:00 PM 77.0 °F 71.6 °F 83% 29.98 in 6.2 mi WNW 3.5 mph - N/A   Overcast
5:00 PM 77.0 °F 71.6 °F 83% 29.98 in 6.2 mi NW 3.5 mph - N/A   Mostly Cloudy
6:00 PM 76 °F 71 °F 82% 29.99 in 7 mi NW 3.5 mph - -   Haze
6:00 PM 75.2 °F 71.6 °F 89% 29.98 in 6.2 mi NW 3.5 mph - N/A   Mostly Cloudy
7:00 PM 75.2 °F 71.6 °F 89% 30.01 in 6.2 mi Calm Calm - N/A   Mostly Cloudy
8:00 PM 73.4 °F 71.6 °F 94% 30.04 in 6.2 mi Calm Calm - N/A   Mostly Cloudy